Terug naar catalogus

STARLINK-2500

ActiefCommunicatieVLEO
NORAD 48485·PAYLOAD·🇺🇸 United States

Gelanceerd May 9, 2021 vanaf Cape Canaveral Space Force Station

Loading…

Volgende Passages (komende 24 uur)

TLE

VersSource: CelesTrak SupGP

Epoch: Sep 14, 2026, 22:00 UTC

1 48485C 21040BK  26257.91715278  .00011005  00000+0  35386-3 0  2579
2 48485  53.1586  33.1102 0001218  87.6084  96.7995 15.31698407    14

Volg STARLINK-2500 in realtime met AllMySat

Download on the App Store